Regional Weather Roundup
Issued by NWS

Home | Current Version | Previous Version | Graphics & Text | Print | Product List | Glossary On
Versions: 1 2 3 4 5 6 7 8 9 10 11 12 13 14 15 16 17 18 19 20 21 22 23 24 25 26 27 28 29 30 31 32 33 34 35 36 37 38 39 40 41 42 43 44 45 46 47 48 49 50
000
ASUS45 KTFX 190804
RWRMT
MONTANA HOURLY WEATHER ROUNDUP
NATIONAL WEATHER SERVICE GREAT FALLS MT
204 AM MDT SAT APR 19 2014

NOTE: "FAIR" INDICATES FEW OR NO CLOUDS BELOW 12000 FEET WITH NO
SIGNIFICANT WEATHER AND/OR OBSTRUCTIONS TO VISIBILITY.

* THESE STATIONS ARE NOT UNDER NWS QUALITY CONTROL. THEY DO NOT
   REPORT WEATHER SUCH AS PRECIPITATION OR FOG.

MTZ001>007-043-190900-
WEST OF THE DIVIDE
CITY           SKY/WX    TMP DP  RH WIND       PRES   REMARKS
KALISPELL      CLOUDY    37  27  67 S8        29.98S WCI  31
MISSOULA       CLEAR     30  21  69 N3        30.04R
BUTTE          PTCLDY    27  14  58 CALM      30.01S
MULLAN PASS    CLEAR     25  21  85 S6        29.95S WCI  18
* ESSEX        N/A       31  30  96 SW1        N/A
* LINCOLN      N/A       34  17  50 S6G13      N/A   WCI  29
* LOOKOUT PASS N/A       26  24  92 S2         N/A
* POLSON       N/A       30  21  69 SE2        N/A
* SEELEY LAKE  N/A       25  21  85 N2         N/A
* THOMP F APT  CLEAR     38   9  30 W3G15      N/A
$$

MTZ008-052>055-190900-
SOUTHWEST MONTANA
CITY           SKY/WX    TMP DP  RH WIND       PRES   REMARKS
BOZEMAN        MOCLDY    36  12  37 NE3       29.99F
DILLON         HAZE      27  10  49 SW9       30.01R WCI  18
W YELLOWSTONE  N/A       29  27  92 SE1        N/A
* THREE FORKS  MOCLDY    43   9  25 N/A        N/A
* BOULDER HILL N/A       35   5  28 SW7        N/A   WCI  29
* MONIDA PASS  N/A       31  13  47 W3         N/A
* RAYNOLDS PAS N/A       32  30  92 N6         N/A   WCI  26
* WHITEHALL    N/A       37   4  25 W8         N/A   WCI  31
* WISE RIVER   N/A       26  14  60 S2G7       N/A
$$

MTZ009>010-012-014-046-048-049-054-190900-
EAST SLOPES AND CENTRAL MONTANA
CITY           SKY/WX    TMP DP  RH WIND       PRES   REMARKS
CUT BANK       CLEAR     36  25  64 W13       29.86R WCI  27
GREAT FALLS    CLEAR     37  19  48 SW16      29.90S WCI  28
HELENA         MOCLDY    39  16  39 W7        29.98R WCI  34
MALMSTROM AFB  PTCLDY    39  18  43 SW16      29.88R WCI  30
* CONRAD       CLEAR     37  25  62 S11G21     N/A   WCI  29
* DEARBORN     N/A       43  16  34 SE3G13     N/A
* EAST GLACIER N/A       34  22  61 W19G32     N/A   WCI  23
* MONARCH      N/A       34   6  31 S15G24     N/A   WCI  24
* PENDROY      N/A       37  19  48 W14G19     N/A   WCI  28
* ROGERS PASS  N/A       32  15  49 SE9G22     N/A   WCI  24
* SAINT MARY   N/A       35  24  64 S8G24      N/A   WCI  28
* SWEET GRASS  N/A       31  31 100 W6         N/A   WCI  25
$$

MTZ011-013-016-021-035-040-045-047-050-051-190900-
NORTH CENTRAL MONTANA
CITY           SKY/WX    TMP DP  RH WIND       PRES   REMARKS
HAVRE          CLOUDY    43  30  60 W16       29.85R
LEWISTOWN      CLEAR     36  16  44 SW17      29.89R WCI  26
* CHESTER      N/A       37  31  79 W11G19     N/A   WCI  29
* DENTON       N/A       34  17  50 SW12       N/A   WCI  25
* GEYSER       N/A       39  11  31 SW17G27    N/A   WCI  30
* JUDITH GAP   N/A       36   8  31 W12        N/A   WCI  28
* LOMA         N/A       41  21  45 SW11G17    N/A
$$

MTZ017>020-022>027-061-062-190900-
NORTHEAST MONTANA
CITY           SKY/WX    TMP DP  RH WIND       PRES   REMARKS
GLASGOW        CLOUDY    39  30  70 W12       29.74F WCI  32
GLENDIVE       CLEAR     36  28  73 SW10      29.81F WCI  29
JORDAN         CLEAR     37  23  57 W8        29.80R WCI  31
SIDNEY         CLEAR     39  34  82 SW13      29.76F WCI  31
WOLF POINT     MOCLDY    37  30  76 W12       29.75F WCI  29
* BEAVER HILL  N/A       39  33  79 SW12G19    N/A   WCI  32
* CIRCLE       N/A       35  29  79 SW1G8      N/A
* LINDSAY DVD  N/A       38  25  60 SW18G23    N/A   WCI  28
* NAVAJO       N/A       34  30  85 W12        N/A   WCI  25
* SACO         N/A       40  36  86 SW27G40    N/A   WCI  29
$$

MTZ028>042-056>058-190900-
SOUTHCENTRAL AND SOUTHEAST MONTANA
CITY           SKY/WX    TMP DP  RH WIND       PRES   REMARKS
BAKER          CLEAR     37  30  76 W10       29.84S WCI  30
BILLINGS       PTCLDY    41  12  30 W7        29.89R
LIVINGSTON     PTCLDY    39  10  30 W17G28    29.93S WCI  30
MILES CITY     CLEAR     37  30  76 SW5       29.87R WCI  33
* LAUREL APT   PTCLDY    46   9  22 W23G32     N/A
* ROUNDUP APT  PTCLDY    41  12  30 SW10G15    N/A
* HYSHAM       N/A       41  14  33 W8         N/A
* LAME DEER    N/A       38  20  48 W8         N/A   WCI  32
* REED POINT   N/A       43  15  32 W13G19     N/A
* ROSCOE HILL  N/A       35  16  46 E3G9       N/A
$$

REGIONAL REPORTS...DAKOTAS
CITY           SKY/WX    TMP DP  RH WIND       PRES   REMARKS
WILLISTON      PTCLDY    39  36  89 SW10      29.72S WCI  32
DICKINSON      PTCLDY    41  34  76 W18G25    29.75R
CROSBY         CLEAR     37  37 100 SW12      29.67F WCI  29
TIOGA          CLEAR     39  39 100 W15       29.72F WCI  31
WATFORD CITY   CLEAR     36  36 100 SW9       29.73R WCI  29
BISMARCK       PTCLDY    46  39  77 NW20G29   29.75R
GRAND FORKS    CLOUDY    45  30  56 SE22      29.75F
FARGO          CLOUDY    52  34  50 SE30G53   29.72F
RAPID CITY     CLOUDY    46  36  68 N20G28    29.88R
$$

REGIONAL REPORTS...WYOMING/IDAHO/WASHINGTON
CITY           SKY/WX    TMP DP  RH WIND       PRES   REMARKS
GILLETTE       PTCLDY    30  27  89 W3        29.93R
SHERIDAN       PTCLDY    36  30  79 W3        29.92S
CODY           CLEAR     36  25  64 NE3       29.90S
YELLOWSTONE LA PTCLDY    25  19  78 W3        30.05R
SALMON         PTCLDY    32  18  56 CALM      30.03S
MULLAN PASS    CLEAR     25  21  85 S6        29.95S WCI  18
SPOKANE        CLEAR     37  27  67 S7        29.95F WCI  32
$$

REGIONAL REPORTS...SASKATCHEWAN
CITY           SKY/WX    TMP DP  RH WIND       PRES   REMARKS
SWIFT CURRENT  FOG       37  36  96 W21G26    29.62R WCI  26

$$




USA.gov is the U.S. government's official web portal to all federal, state and local government web resources and services.